TimeEST,TemperatureF,Dew PointF,Humidity,Sea Level PressureIn,VisibilityMPH,Wind Direction,Wind SpeedMPH,Gust SpeedMPH,PrecipitationIn,Events,Conditions,WindDirDegrees,DateUTC
12:35 AM,35.6,33.8,93,30.02,1.8,Calm,Calm,-,N/A,,Overcast,0,2012-12-08 05:35:00
12:55 AM,35.6,33.8,93,30.02,2.5,Calm,Calm,-,N/A,,Overcast,0,2012-12-08 05:55:00
1:15 AM,35.6,33.8,93,30.02,2.0,Calm,Calm,-,N/A,,Overcast,0,2012-12-08 06:15:00
1:35 AM,35.6,33.8,93,30.02,2.0,Calm,Calm,-,N/A,,Overcast,0,2012-12-08 06:35:00
2:15 AM,35.6,33.8,93,30.01,1.8,Calm,Calm,-,N/A,,Overcast,0,2012-12-08 07:15:00
2:35 AM,35.6,33.8,93,30.01,1.8,Calm,Calm,-,N/A,,Overcast,0,2012-12-08 07:35:00
3:35 AM,35.6,33.8,93,30.00,0.2,Calm,Calm,-,N/A,,Overcast,0,2012-12-08 08:35:00
3:55 AM,35.6,33.8,93,30.00,0.5,Calm,Calm,-,N/A,,Overcast,0,2012-12-08 08:55:00
4:35 AM,35.6,33.8,93,29.99,0.5,Calm,Calm,-,N/A,,Overcast,0,2012-12-08 09:35:00
4:55 AM,35.6,33.8,93,29.99,0.5,Calm,Calm,-,0.05,,Overcast,0,2012-12-08 09:55:00
5:15 AM,35.6,33.8,93,29.98,1.2,Calm,Calm,-,0.03,,Overcast,0,2012-12-08 10:15:00
5:35 AM,35.6,33.8,93,29.99,1.8,Calm,Calm,-,0.05,,Overcast,0,2012-12-08 10:35:00
6:15 AM,35.6,33.8,93,29.99,2.5,Calm,Calm,-,N/A,,Overcast,0,2012-12-08 11:15:00
6:35 AM,35.6,33.8,93,29.98,2.5,Calm,Calm,-,N/A,,Overcast,0,2012-12-08 11:35:00
6:55 AM,35.6,33.8,93,29.97,2.5,Calm,Calm,-,N/A,,Overcast,0,2012-12-08 11:55:00
7:15 AM,35.6,33.8,93,29.96,2.0,Calm,Calm,-,N/A,,Overcast,0,2012-12-08 12:15:00
7:35 AM,35.6,33.8,93,29.95,1.2,NE,3.5,-,N/A,,Overcast,50,2012-12-08 12:35:00
7:55 AM,35.6,33.8,93,29.95,1.8,Calm,Calm,-,0.01,,Overcast,0,2012-12-08 12:55:00
8:15 AM,35.6,33.8,93,29.96,1.5,Calm,Calm,-,0.01,,Overcast,0,2012-12-08 13:15:00
8:55 AM,37.4,35.6,93,29.95,1.8,East,3.5,-,0.09,,Overcast,90,2012-12-08 13:55:00
9:15 AM,37.4,35.6,93,29.95,4.0,Calm,Calm,-,0.02,,Overcast,0,2012-12-08 14:15:00
9:35 AM,37.4,35.6,93,29.95,5.0,Calm,Calm,-,0.03,,Overcast,0,2012-12-08 14:35:00
9:55 AM,37.4,35.6,93,29.95,5.0,Calm,Calm,-,0.04,,Overcast,0,2012-12-08 14:55:00
10:15 AM,37.4,35.6,93,29.95,8.0,Calm,Calm,-,N/A,,Overcast,0,2012-12-08 15:15:00
11:15 AM,37.4,35.6,93,29.91,2.5,Calm,Calm,-,N/A,,Overcast,0,2012-12-08 16:15:00
11:35 AM,37.4,35.6,93,29.91,3.0,Calm,Calm,-,N/A,,Overcast,0,2012-12-08 16:35:00
11:55 AM,39.2,35.6,87,29.90,3.0,Calm,Calm,-,N/A,,Overcast,0,2012-12-08 16:55:00
12:15 PM,39.2,37.4,93,29.89,1.2,Calm,Calm,-,N/A,,Overcast,0,2012-12-08 17:15:00
12:35 PM,39.2,37.4,93,29.88,1.5,Calm,Calm,-,N/A,,Overcast,0,2012-12-08 17:35:00
1:55 PM,39.2,37.4,93,29.85,4.0,Calm,Calm,-,N/A,,Overcast,0,2012-12-08 18:55:00
2:35 PM,39.2,37.4,93,29.87,5.0,Calm,Calm,-,N/A,,Overcast,0,2012-12-08 19:35:00
2:55 PM,39.2,37.4,93,29.87,3.0,Calm,Calm,-,N/A,,Overcast,0,2012-12-08 19:55:00
3:55 PM,39.2,37.4,93,29.87,7.0,SW,3.5,-,N/A,,Overcast,220,2012-12-08 20:55:00
4:15 PM,39.2,37.4,93,29.87,7.0,Calm,Calm,-,N/A,,Overcast,0,2012-12-08 21:15:00
4:35 PM,39.2,37.4,93,29.87,8.0,Calm,Calm,-,N/A,,Overcast,0,2012-12-08 21:35:00
4:55 PM,39.2,37.4,93,29.87,6.0,Calm,Calm,-,N/A,,Overcast,0,2012-12-08 21:55:00
5:35 PM,39.2,37.4,93,29.88,3.0,Calm,Calm,-,N/A,,Overcast,0,2012-12-08 22:35:00
5:55 PM,39.2,37.4,93,29.88,3.0,Calm,Calm,-,N/A,,Overcast,0,2012-12-08 22:55:00
6:15 PM,39.2,37.4,93,29.88,3.0,Calm,Calm,-,N/A,,Overcast,0,2012-12-08 23:15:00
6:55 PM,39.2,37.4,93,29.89,3.0,Calm,Calm,-,N/A,,Overcast,0,2012-12-08 23:55:00
7:15 PM,39.2,37.4,93,29.90,1.5,Calm,Calm,-,N/A,,Overcast,0,2012-12-09 00:15:00
7:35 PM,39.2,37.4,93,29.90,0.5,Calm,Calm,-,N/A,,Overcast,0,2012-12-09 00:35:00
7:55 PM,39.2,37.4,93,29.91,1.0,Calm,Calm,-,N/A,,Overcast,0,2012-12-09 00:55:00
8:15 PM,39.2,37.4,93,29.91,0.8,Calm,Calm,-,N/A,,Overcast,0,2012-12-09 01:15:00
8:55 PM,39.2,37.4,93,29.91,1.8,Calm,Calm,-,N/A,,Overcast,0,2012-12-09 01:55:00
9:15 PM,39.2,37.4,93,29.91,2.0,Calm,Calm,-,N/A,,Overcast,0,2012-12-09 02:15:00
9:35 PM,39.2,37.4,93,29.92,2.5,Calm,Calm,-,N/A,,Overcast,0,2012-12-09 02:35:00
9:55 PM,39.2,37.4,93,29.92,1.5,Calm,Calm,-,N/A,,Overcast,0,2012-12-09 02:55:00
10:15 PM,39.2,37.4,93,29.93,1.2,Calm,Calm,-,N/A,,Overcast,0,2012-12-09 03:15:00
10:35 PM,39.2,37.4,93,29.93,1.8,Calm,Calm,-,N/A,,Overcast,0,2012-12-09 03:35:00
10:55 PM,41.0,39.2,93,29.94,3.0,SW,3.5,-,N/A,,Overcast,220,2012-12-09 03:55:00
11:35 PM,41.0,39.2,93,29.96,1.2,SSW,5.8,-,N/A,,Overcast,200,2012-12-09 04:35:00
11:55 PM,41.0,39.2,93,29.96,2.0,SW,6.9,-,N/A,,Overcast,220,2012-12-09 04:55:00